Retour au catalogue

FENGYUN 1C DEB

ActifSSO
NORAD 30527·DEBRIS·🇨🇳 China

Lancé May 10, 1999 depuis Taiyuan Satellite Launch Center

Loading…

Prochains Passages (prochaines 24 heures)

TLE

FraisSource: Space-Track

Époque: Sep 14, 2026, 14:26 UTC

1 30527U 99025AJR 26257.60188630  .00000828  00000-0  11489-2 0  9999
2 30527 100.0436 300.3046 0408564 289.7350 226.9760 13.31557285950275

Suivez FENGYUN 1C DEB en temps réel avec AllMySat

Download on the App Store